FENGYUN 1C DEB, 31542

Orbit data source: Space-Track

FENGYUN 1C DEB, 31542 is space debris in SSO originally from a launch on Mon, 10 May 1999 UTC launched from the Taiyaun Space Center, China (TSC). Fengyun 1C debris stems from the Chinese weather satellite Fengyun-1C, which was intentionally destroyed by a Chinese anti-satellite missile in 2007. This event dramatically increased the amount of space debris, with thousands of trackable fragments posing hazards to satellites and human spaceflight. The Fengyun 1C debris cloud has become a focal point in discussions about space sustainability and the need for international regulations to prevent the creation of new debris.

Loading next visibility...
Identifier
31542, 1999-025BYH
Orbit
SSO
Country
Flag of CNCN / PRC
Related business
Manufacturer
Unknown
Mission
Spacecraft
Bus & Motor
Unknown
Mass
Unknown
Launch date (UTC)
1999-05-10 (27 years ago)
Launch vehicle
Unknown
Launch site
Taiyaun Space Center, China (TSC)
Object type
Payload
Rocket body
Debris
Shape & HBR
Unknown shape, 0.1 m
Radar Cross Section
Small (<0.1 m²)

Expand to show TLE details & history
Last TLE update: 1 day ago

TLE from 1 day ago
0 FENGYUN 1C DEB
1 31542U 99025BYH 26073.37019929  .00002502  00000-0  11116-2 0  9999
2 31542  98.7207 131.5707 0044406 301.8977  57.7885 14.23346535972438
Epoch: 2026-03-14T08:53Z
TLE epoch observation values (Epoch: 2026-03-14T08:53:05.218Z)
Latitude
-0.00002°
Longitude
-173.69339°
Altitude
800.05 km
Speed
7.462 km/s
True Right ascension
08h 46m 16s
True Declination
0° 00' 00"
Sunlit
Object was in full shadow at epoch
Visualization orbit readout
Latitude
Unknown
Longitude
Unknown
Altitude
Unknown
Speed
Unknown
Apparent Right ascension
Unknown
Apparent Declination
Unknown
Sunlit
N/A
Visualization observer readout
Local Sidereal Time
22:31:21
Azimuth
Unknown
Elevation
Unknown
Doppler factor
Unknown
Orbital elements
Apogee altitude
843.137 km
Perigee altitude
779.287 km
Semi-major axis
7,189.349 km
Eccentricity
0.00444
Inclination
98.7207°
RAAN
131.5707°
Arg. of periapsis
301.8977°
True anomaly
58.22031°
Mean anomaly
57.7885°
Eccentric anomaly
58.00428°
Mean motion
3.56048 °/min
Orbital period
101.11 mins
BSTAR
0.0011116
Loading maneuver chart data...
Computing Atmospheric mass density...

Documentation

Showing up to 5 results
|